Flight Track Log - Related Links

Times and Time Zones

All times are in EDT time to prevent confusion due to time zone crossing. See the UAL5900 flight status page for this flight to view local times or setup timezone preferences in your user account.

Time Position Orientation Groundspeed Altitude Reporting Facility
EDT Latitude Longitude Course Direction KTS MPH feet Rate Location/Type
Sat 04:39:42 PM 42.7728 -84.6500 281° West 169 194 3,000  Level Chicago Center
Sat 04:40:44 PM 42.7800 -84.7150 279° West 211 243 6,800 3,484 Climbing Chicago Center
Sat 04:41:46 PM 42.7817 -84.8056 271° West 231 266 10,200 3,000 Climbing Chicago Center
Sat 04:42:00 PM 42.7667 -84.8526 270° West  Level FlightAware Approximate
Sat 04:42:48 PM 42.7822 -84.9242 270° West 261 300 13,000  Level Chicago Center
Sat 04:43:00 PM 42.7667 -84.9199 270° West  Level FlightAware Approximate
Sat 04:43:49 PM 42.7842 -85.0417 271° West 304 350 14,800  Level Chicago Center
Sat 04:44:00 PM 42.7667 -84.9872 270° West  Level FlightAware Approximate
Sat 04:44:51 PM 42.7828 -85.1694 269° West 334 384 16,000  Level Chicago Center
Sat 04:45:00 PM 42.7737 -85.0491 281° West  Level FlightAware Approximate
Sat 04:45:53 PM 42.7606 -85.3056 258° West 365 420 16,100  Level Chicago Center
Sat 04:46:55 PM 42.7392 -85.4419 258° West 366 421 16,100  Level Chicago Center
Sat 04:47:56 PM 42.7164 -85.5786 257° West 369 425 16,100  Level Chicago Center
Sat 04:48:58 PM 42.6944 -85.7144 258° West 368 423 16,100  Level Chicago Center
Sat 04:50:00 PM 42.6719 -85.8506 257° West 367 422 16,100  Level Chicago Center
Sat 04:51:01 PM 42.6458 -86.0103 258° West 360 414 16,100  Level Chicago Center
Sat 04:52:03 PM 42.6228 -86.1425 257° West 358 412 16,100  Level Chicago Center
Sat 04:53:05 PM 42.6011 -86.2753 258° West 359 413 16,100  Level Chicago Center
Sat 04:54:07 PM 42.5778 -86.4050 256° West 355 409 16,100 -98 Level Chicago Center
Sat 04:55:08 PM 42.5558 -86.5383 257° West 361 415 15,900 -780 Descending Chicago Center
Sat 04:56:10 PM 42.5331 -86.6692 257° West 357 411 14,500 -1,355 Descending Chicago Center
Sat 04:57:12 PM 42.5122 -86.7947 257° West 345 397 13,100 -1,220 Descending Chicago Center
Sat 04:58:13 PM 42.4914 -86.9156 257° West 333 383 12,000 -1,220 Descending Chicago Center
Sat 04:59:15 PM 42.4675 -87.0400 255° West 286 329 10,600 -1,161 Descending Chicago Center
Sat 05:00:17 PM 42.4483 -87.1350 255° West 267 307 9,600 -774 Descending Chicago Center
Sat 05:01:19 PM 42.3953 -87.1978 221° Southwest 264 304 9,000 -585 Descending Chicago Center
Sat 05:02:20 PM 42.3231 -87.2356 201° Southwest 278 320 8,400 -780 Descending Chicago Center
Sat 05:03:22 PM 42.2478 -87.2781 203° Southwest 278 320 7,400 -677 Descending Chicago Center
Sat 05:04:24 PM 42.1811 -87.3128 201° Southwest 259 298 7,000 -195 Descending Chicago Center
Sat 05:05:25 PM 42.1144 -87.3481 201° Southwest 258 297 7,000  Level Chicago Center
Sat 05:06:27 PM 42.0469 -87.3858 203° Southwest 261 300 7,000  Level Chicago Center
Sat 05:07:29 PM 41.9853 -87.4367 212° Southwest 226 260 7,000 -281 Level Chicago Center
Sat 05:08:35 PM 41.9833 -87.5167 268° West 204 235 6,400 -864 Descending Chicago TRACON
Sat 05:09:41 PM 41.9833 -87.6000 270° West 210 242 5,100 -1,200 Descending Chicago TRACON
Sat 05:10:35 PM 41.9833 -87.6667 270° West 196 226 4,000 -1,222 Descending Chicago TRACON

Login

Don't have an account? Register now (free) for customized features, flight alerts, and more!